Regional Weather Roundup
Issued by NWS Glasgow, MT

Home | Current Version | Previous Version | Text Only | Print | Product List | Glossary On
Versions: 1 2 3 4 5 6 7 8 9 10 11 12 13 14 15 16 17 18 19 20 21 22 23 24 25 26 27 28
000
ASUS45 KGGW 220415
RWRGGW
HOURLY REGIONAL WEATHER ROUNDUP FOR NORTHEAST MONTANA
NATIONAL WEATHER SERVICE GLASGOW MONTANA
900 PM MST TUE NOV 21 2017

NOTE: "FAIR" INDICATES FEW OR NO CLOUDS BELOW 12,000 FEET WITH NO
SIGNIFICANT WEATHER AND/OR OBSTRUCTIONS TO VISISBILITY.

NORTHEAST MONTANA


CITY           SKY/WX    TMP DP  RH WIND       PRES   REMARKS
GLASGOW        CLOUDY    19   6  57 E13       30.07F
PLENTYWOOD       N/A     13   4  67 SE6         N/A
WOLF POINT     CLOUDY    17   4  56 NE5       30.14F
JORDAN           N/A     31  24  75 CALM      30.07F
WINNETT          N/A     36  32  85 SW3         N/A
SIDNEY         CLOUDY    15   6  67 SW5       30.17F
GLENDIVE       CLOUDY    19  11  70 SW6       30.14F
MALTA            N/A     20  13  74 E5          N/A
SCOBEY           N/A     14  -6  40 SE7       30.05F

FORT PECK REPORTS


CITY           SKY/WX    TMP DP  RH WIND       PRES   REMARKS
FORT PECK        N/A     30  24  78 SE15        N/A
THE PINES        N/A     30  22  72 S10         N/A

SOUTHEAST MONTANA


CITY           SKY/WX    TMP DP  RH WIND       PRES   REMARKS
BILLINGS       CLOUDY    43  33  68 SW16      30.10F
MILES CITY     CLOUDY    26  20  77 S6        30.12F
BAKER          CLOUDY    22  17  81 SE8       30.15F
LIVINGSTON     CLOUDY    48  37  65 W23G38    30.11F

CENTRAL MONTANA


CITY           SKY/WX    TMP DP  RH WIND       PRES   REMARKS
HAVRE          CLOUDY    24  15  68 E8        29.97F
LEWISTOWN      LGT RAIN  42  35  76 SW14      30.02F
GREAT FALLS    CLOUDY    50  36  58 SW21G33   29.99F
CUT BANK       CLOUDY    31  25  78 SE8       29.91F
HELENA         CLOUDY    35  33  92 CALM      30.12F
BUTTE          CLOUDY    39  31  72 E5        30.18F
BOZEMAN        CLOUDY    34  32  92 VRB5      30.18S

WESTERN MONTANA


CITY           SKY/WX    TMP DP  RH WIND       PRES   REMARKS
MISSOULA       CLOUDY    36  36 100 CALM      30.18F
KALISPELL      NOT AVBL

NORTH DAKOTA


CITY           SKY/WX    TMP DP  RH WIND       PRES   REMARKS
WILLISTON      CLOUDY    15   3  59 SE3       30.18F
DICKINSON      CLOUDY    11   2  67 S6        30.16F
MINOT          CLOUDY     8   1  73 SW5       30.24F
BISMARCK       CLOUDY     8   4  83 E5        30.31F

SOUTHERN SASKATCHEWAN


CITY           SKY/WX    TMP DP  RH WIND       PRES   REMARKS
REGINA         CLOUDY     1  -4  78 SE13      30.14F WCI -16
ESTEVAN        CLOUDY     5   0  78 SE5       30.19F
SWIFT CURRENT  MOCLDY    14   7  73 S16       29.94F WCI  -2





USA.gov is the U.S. government's official web portal to all federal, state and local government web resources and services.